Time,TemperatureF,DewpointF,PressureIn,WindDirection,WindDirectionDegrees,WindSpeedMPH,WindSpeedGustMPH,Humidity,HourlyPrecipIn,Conditions,Clouds,dailyrainin,SoftwareType,DateUTC
2013-01-15 00:02:00,15.0,13.0,30.47,South,174,0.0,0.0,92,0.00,,,0.00,,2013-01-15 06:02:00,
2013-01-15 00:12:00,15.0,13.0,30.47,South,174,0.0,0.0,92,0.00,,,0.00,,2013-01-15 06:12:00,
2013-01-15 00:22:00,16.0,14.0,30.47,South,174,0.0,1.0,92,0.00,,,0.00,,2013-01-15 06:22:00,
2013-01-15 00:33:00,16.0,14.0,30.47,South,174,0.0,0.0,91,0.00,,,0.00,,2013-01-15 06:33:00,
2013-01-15 00:42:00,16.0,14.0,30.47,South,174,0.0,0.0,91,0.00,,,0.00,,2013-01-15 06:42:00,
2013-01-15 00:53:00,16.0,14.0,30.47,South,174,0.0,0.0,91,0.00,,,0.00,,2013-01-15 06:53:00,
2013-01-15 01:02:00,15.0,13.0,30.46,South,174,0.0,0.0,91,0.00,,,0.00,,2013-01-15 07:02:00,
2013-01-15 01:12:00,15.0,13.0,30.46,South,174,0.0,0.0,91,0.00,,,0.00,,2013-01-15 07:12:00,
2013-01-15 01:22:00,15.0,13.0,30.46,South,174,0.0,0.0,92,0.00,,,0.00,,2013-01-15 07:22:00,
2013-01-15 01:33:00,15.0,13.0,30.46,South,174,0.0,0.0,91,0.00,,,0.00,,2013-01-15 07:33:00,
2013-01-15 01:42:00,15.0,13.0,30.46,South,174,0.0,0.0,91,0.00,,,0.00,,2013-01-15 07:42:00,
2013-01-15 01:52:00,15.0,13.0,30.46,South,174,0.0,0.0,91,0.00,,,0.00,,2013-01-15 07:52:00,
2013-01-15 02:02:00,15.0,13.0,30.47,South,174,0.0,0.0,91,0.00,,,0.00,,2013-01-15 08:02:00,
2013-01-15 02:12:00,15.0,13.0,30.47,South,174,0.0,0.0,91,0.00,,,0.00,,2013-01-15 08:12:00,
2013-01-15 02:22:00,15.0,13.0,30.47,South,174,0.0,0.0,91,0.00,,,0.00,,2013-01-15 08:22:00,
2013-01-15 02:32:00,15.0,13.0,30.46,South,174,0.0,0.0,91,0.00,,,0.00,,2013-01-15 08:32:00,
2013-01-15 02:42:00,15.0,13.0,30.46,South,174,0.0,0.0,91,0.00,,,0.00,,2013-01-15 08:42:00,
2013-01-15 02:52:00,14.0,12.0,30.47,South,174,0.0,0.0,91,0.00,,,0.00,,2013-01-15 08:52:00,
2013-01-15 03:02:00,14.0,12.0,30.46,South,174,0.0,2.0,91,0.00,,,0.00,,2013-01-15 09:02:00,
2013-01-15 03:12:00,14.0,12.0,30.46,South,174,0.0,2.0,91,0.00,,,0.00,,2013-01-15 09:12:00,
2013-01-15 03:22:00,14.0,12.0,30.46,South,174,0.0,1.0,91,0.00,,,0.00,,2013-01-15 09:22:00,
2013-01-15 03:33:00,14.0,12.0,30.46,South,174,0.0,0.0,92,0.00,,,0.00,,2013-01-15 09:33:00,
2013-01-15 03:42:00,14.0,12.0,30.46,South,174,0.0,0.0,92,0.00,,,0.00,,2013-01-15 09:42:00,
2013-01-15 03:52:00,14.0,12.0,30.45,South,174,0.0,0.0,91,0.00,,,0.00,,2013-01-15 09:52:00,
2013-01-15 04:02:00,13.0,11.0,30.46,South,174,0.0,0.0,91,0.00,,,0.00,,2013-01-15 10:02:00,
2013-01-15 04:12:00,13.0,11.0,30.46,South,174,0.0,0.0,91,0.00,,,0.00,,2013-01-15 10:12:00,
2013-01-15 04:22:00,13.0,11.0,30.46,South,174,0.0,0.0,91,0.00,,,0.00,,2013-01-15 10:22:00,
2013-01-15 04:32:00,13.0,11.0,30.46,South,174,0.0,0.0,91,0.00,,,0.00,,2013-01-15 10:32:00,
2013-01-15 04:42:00,13.0,11.0,30.46,South,174,0.0,0.0,91,0.00,,,0.00,,2013-01-15 10:42:00,
2013-01-15 04:52:00,14.0,12.0,30.45,South,174,0.0,1.0,92,0.00,,,0.00,,2013-01-15 10:52:00,
2013-01-15 05:02:00,14.0,12.0,30.44,South,174,0.0,0.0,91,0.00,,,0.00,,2013-01-15 11:02:00,
2013-01-15 05:12:00,14.0,12.0,30.44,South,174,0.0,0.0,91,0.00,,,0.00,,2013-01-15 11:12:00,
2013-01-15 05:22:00,14.0,12.0,30.43,South,174,0.0,0.0,91,0.00,,,0.00,,2013-01-15 11:22:00,
2013-01-15 05:33:00,14.0,12.0,30.42,South,174,0.0,0.0,91,0.00,,,0.00,,2013-01-15 11:33:00,
2013-01-15 05:42:00,14.0,12.0,30.42,South,174,0.0,0.0,91,0.00,,,0.00,,2013-01-15 11:42:00,
2013-01-15 05:52:00,14.0,12.0,30.42,South,174,0.0,0.0,91,0.00,,,0.00,,2013-01-15 11:52:00,
2013-01-15 06:03:00,14.0,12.0,30.45,South,174,0.0,0.0,91,0.00,,,0.00,,2013-01-15 12:03:00,
2013-01-15 06:12:00,14.0,12.0,30.45,South,174,0.0,0.0,91,0.00,,,0.00,,2013-01-15 12:12:00,
2013-01-15 06:22:00,14.0,12.0,30.45,South,174,0.0,1.0,91,0.00,,,0.00,,2013-01-15 12:22:00,
2013-01-15 06:33:00,14.0,12.0,30.43,South,174,0.0,1.0,91,0.00,,,0.00,,2013-01-15 12:33:00,
2013-01-15 06:42:00,14.0,12.0,30.43,South,174,0.0,1.0,91,0.00,,,0.00,,2013-01-15 12:42:00,
2013-01-15 06:53:00,14.0,12.0,30.45,South,174,0.0,0.0,90,0.00,,,0.00,,2013-01-15 12:53:00,
2013-01-15 07:03:00,14.0,12.0,30.44,South,174,0.0,0.0,91,0.00,,,0.00,,2013-01-15 13:03:00,
2013-01-15 07:12:00,14.0,12.0,30.44,South,174,0.0,0.0,91,0.00,,,0.00,,2013-01-15 13:12:00,
2013-01-15 07:23:00,13.0,11.0,30.43,South,174,0.0,0.0,91,0.00,,,0.00,,2013-01-15 13:23:00,
2013-01-15 07:33:00,14.0,12.0,30.45,South,174,0.0,0.0,91,0.00,,,0.00,,2013-01-15 13:33:00,
2013-01-15 07:43:00,14.0,12.0,30.45,South,174,0.0,0.0,91,0.00,,,0.00,,2013-01-15 13:43:00,
2013-01-15 07:53:00,14.0,12.0,30.45,South,174,0.0,0.0,90,0.00,,,0.00,,2013-01-15 13:53:00,
2013-01-15 08:02:00,13.0,11.0,30.45,South,174,0.0,0.0,91,0.00,,,0.00,,2013-01-15 14:02:00,
2013-01-15 08:12:00,13.0,11.0,30.45,South,174,0.0,0.0,91,0.00,,,0.00,,2013-01-15 14:12:00,
2013-01-15 08:23:00,14.0,12.0,30.43,South,174,0.0,1.0,92,0.00,,,0.00,,2013-01-15 14:23:00,
2013-01-15 08:33:00,15.0,13.0,30.45,South,174,0.0,1.0,92,0.00,,,0.00,,2013-01-15 14:33:00,
2013-01-15 08:43:00,15.0,13.0,30.45,South,174,0.0,1.0,92,0.00,,,0.00,,2013-01-15 14:43:00,
2013-01-15 08:53:00,16.0,14.0,30.45,South,174,0.0,0.0,92,0.00,,,0.00,,2013-01-15 14:53:00,
2013-01-15 09:03:00,17.0,15.0,30.47,South,174,0.0,1.0,92,0.00,,,0.00,,2013-01-15 15:03:00,
2013-01-15 09:12:00,17.0,15.0,30.47,South,174,0.0,1.0,92,0.00,,,0.00,,2013-01-15 15:12:00,
2013-01-15 09:23:00,18.0,16.0,30.46,South,174,0.0,0.0,91,0.00,,,0.00,,2013-01-15 15:23:00,
2013-01-15 09:33:00,19.0,17.0,30.46,SSE,165,1.0,3.0,90,0.00,,,0.00,,2013-01-15 15:33:00,
2013-01-15 09:43:00,19.0,17.0,30.46,SSE,165,1.0,3.0,90,0.00,,,0.00,,2013-01-15 15:43:00,
2013-01-15 09:53:00,20.0,17.0,30.47,NE,35,1.0,3.0,89,0.00,,,0.00,,2013-01-15 15:53:00,
2013-01-15 10:03:00,20.0,17.0,30.47,NE,35,1.0,3.0,89,0.00,,,0.00,,2013-01-15 16:03:00,
2013-01-15 10:12:00,20.0,17.0,30.47,NE,35,1.0,3.0,89,0.00,,,0.00,,2013-01-15 16:12:00,
2013-01-15 10:22:00,22.0,18.0,30.46,North,5,0.0,3.0,85,0.00,,,0.00,,2013-01-15 16:22:00,
2013-01-15 10:33:00,24.0,19.0,30.45,SE,146,0.0,4.0,82,0.00,,,0.00,,2013-01-15 16:33:00,
2013-01-15 10:42:00,24.0,19.0,30.45,SE,146,0.0,4.0,82,0.00,,,0.00,,2013-01-15 16:42:00,
2013-01-15 10:53:00,24.0,19.0,30.43,ENE,72,1.0,4.0,82,0.00,,,0.00,,2013-01-15 16:53:00,
2013-01-15 11:03:00,25.0,19.0,30.42,East,101,1.0,6.0,79,0.00,,,0.00,,2013-01-15 17:03:00,
2013-01-15 11:12:00,25.0,19.0,30.42,East,101,1.0,6.0,79,0.00,,,0.00,,2013-01-15 17:12:00,
2013-01-15 11:22:00,26.0,20.0,30.42,East,80,2.0,5.0,79,0.00,,,0.00,,2013-01-15 17:22:00,
2013-01-15 11:33:00,27.0,21.0,30.41,North,350,2.0,7.0,77,0.00,,,0.00,,2013-01-15 17:33:00,
2013-01-15 11:42:00,27.0,21.0,30.41,North,350,2.0,7.0,77,0.00,,,0.00,,2013-01-15 17:42:00,
2013-01-15 11:53:00,27.0,21.0,30.40,NNE,21,1.0,5.0,78,0.00,,,0.00,,2013-01-15 17:53:00,
2013-01-15 12:03:00,28.0,22.0,30.40,SSE,150,1.0,4.0,78,0.00,,,0.00,,2013-01-15 18:03:00,
2013-01-15 12:13:00,28.0,22.0,30.40,SSE,150,1.0,4.0,78,0.00,,,0.00,,2013-01-15 18:13:00,
2013-01-15 12:23:00,29.0,22.0,30.37,NE,35,2.0,6.0,75,0.00,,,0.00,,2013-01-15 18:23:00,
2013-01-15 12:33:00,28.0,21.0,30.35,NE,34,3.0,9.0,75,0.00,,,0.00,,2013-01-15 18:33:00,
2013-01-15 12:43:00,28.0,21.0,30.35,NE,34,3.0,9.0,75,0.00,,,0.00,,2013-01-15 18:43:00,
2013-01-15 12:53:00,28.0,21.0,30.36,North,360,2.0,5.0,74,0.00,,,0.00,,2013-01-15 18:53:00,
2013-01-15 13:03:00,28.0,21.0,30.36,East,92,1.0,6.0,75,0.00,,,0.00,,2013-01-15 19:03:00,
2013-01-15 13:12:00,28.0,21.0,30.36,East,92,1.0,6.0,75,0.00,,,0.00,,2013-01-15 19:12:00,
2013-01-15 13:23:00,28.0,20.0,30.35,SSE,151,2.0,6.0,73,0.00,,,0.00,,2013-01-15 19:23:00,
2013-01-15 13:33:00,28.0,21.0,30.34,ENE,57,3.0,8.0,75,0.00,,,0.00,,2013-01-15 19:33:00,
2013-01-15 13:42:00,28.0,21.0,30.34,ENE,57,3.0,8.0,75,0.00,,,0.00,,2013-01-15 19:42:00,
2013-01-15 13:53:00,28.0,21.0,30.34,ENE,57,3.0,8.0,75,0.00,,,0.00,,2013-01-15 19:53:00,
2013-01-15 14:03:00,28.0,20.0,30.33,NNE,16,3.0,8.0,73,0.00,,,0.00,,2013-01-15 20:03:00,
2013-01-15 14:12:00,28.0,20.0,30.33,NNE,16,3.0,8.0,73,0.00,,,0.00,,2013-01-15 20:12:00,
2013-01-15 14:23:00,28.0,20.0,30.33,East,81,0.0,6.0,73,0.00,,,0.00,,2013-01-15 20:23:00,
2013-01-15 14:33:00,28.0,20.0,30.33,East,81,0.0,6.0,73,0.00,,,0.00,,2013-01-15 20:33:00,
2013-01-15 14:43:00,28.0,20.0,30.33,East,81,0.0,6.0,73,0.00,,,0.00,,2013-01-15 20:43:00,
2013-01-15 14:52:00,29.0,21.0,30.33,North,360,0.0,5.0,72,0.00,,,0.00,,2013-01-15 20:52:00,
2013-01-15 15:03:00,30.0,22.0,30.33,SSE,159,2.0,7.0,72,0.00,,,0.00,,2013-01-15 21:03:00,
2013-01-15 15:13:00,30.0,22.0,30.33,SSE,159,2.0,7.0,72,0.00,,,0.00,,2013-01-15 21:13:00,
2013-01-15 15:23:00,29.0,21.0,30.32,North,9,3.0,5.0,73,0.00,,,0.00,,2013-01-15 21:23:00,
2013-01-15 15:33:00,29.0,22.0,30.34,SSW,194,0.0,5.0,75,0.00,,,0.00,,2013-01-15 21:33:00,
2013-01-15 15:43:00,29.0,22.0,30.34,SSW,194,0.0,5.0,75,0.00,,,0.00,,2013-01-15 21:43:00,
2013-01-15 15:52:00,29.0,22.0,30.35,SE,142,2.0,5.0,75,0.00,,,0.00,,2013-01-15 21:52:00,
2013-01-15 16:03:00,29.0,22.0,30.34,SSE,153,2.0,5.0,76,0.00,,,0.00,,2013-01-15 22:03:00,
2013-01-15 16:12:00,29.0,22.0,30.34,SSE,153,2.0,5.0,76,0.00,,,0.00,,2013-01-15 22:12:00,
2013-01-15 16:23:00,29.0,22.0,30.34,SSE,161,2.0,6.0,76,0.00,,,0.00,,2013-01-15 22:23:00,
2013-01-15 16:33:00,29.0,23.0,30.33,SSE,149,2.0,4.0,77,0.00,,,0.00,,2013-01-15 22:33:00,
2013-01-15 16:43:00,29.0,23.0,30.33,SSE,149,2.0,4.0,77,0.00,,,0.00,,2013-01-15 22:43:00,
2013-01-15 16:52:00,29.0,23.0,30.32,North,350,0.0,3.0,77,0.00,,,0.00,,2013-01-15 22:52:00,
2013-01-15 17:02:00,29.0,23.0,30.32,North,350,0.0,3.0,77,0.00,,,0.00,,2013-01-15 23:02:00,
2013-01-15 17:13:00,29.0,23.0,30.32,North,350,0.0,3.0,77,0.00,,,0.00,,2013-01-15 23:13:00,
2013-01-15 17:22:00,28.0,22.0,30.31,North,5,0.0,3.0,79,0.00,,,0.00,,2013-01-15 23:22:00,
2013-01-15 17:33:00,28.0,23.0,30.31,North,5,0.0,3.0,80,0.00,,,0.00,,2013-01-15 23:33:00,
2013-01-15 17:43:00,28.0,23.0,30.31,North,5,0.0,3.0,80,0.00,,,0.00,,2013-01-15 23:43:00,
2013-01-15 17:51:00,26.0,22.0,30.28,NNE,20,0.0,2.0,84,0.00,,,0.00,,2013-01-15 23:51:00,
2013-01-15 17:53:00,27.0,22.0,30.30,North,9,0.0,2.0,81,0.00,,,0.00,,2013-01-15 23:53:00,
2013-01-15 18:02:00,27.0,22.0,30.29,NNE,22,0.0,2.0,82,0.00,,,0.00,,2013-01-16 00:02:00,
2013-01-15 18:12:00,27.0,22.0,30.29,NNE,22,0.0,2.0,82,0.00,,,0.00,,2013-01-16 00:12:00,
2013-01-15 18:22:00,26.0,22.0,30.28,NNE,20,0.0,2.0,84,0.00,,,0.00,,2013-01-16 00:22:00,
2013-01-15 18:33:00,26.0,22.0,30.28,NNE,20,0.0,2.0,84,0.00,,,0.00,,2013-01-16 00:33:00,
2013-01-15 18:43:00,26.0,22.0,30.28,NNE,20,0.0,2.0,84,0.00,,,0.00,,2013-01-16 00:43:00,
2013-01-15 19:03:00,25.0,21.0,30.25,NNE,23,1.0,4.0,86,0.00,,,0.00,,2013-01-16 01:03:00,
2013-01-15 19:12:00,25.0,21.0,30.25,NNE,23,1.0,4.0,86,0.00,,,0.00,,2013-01-16 01:12:00,
2013-01-15 19:22:00,25.0,21.0,30.25,NNE,18,1.0,5.0,86,0.00,,,0.00,,2013-01-16 01:22:00,
2013-01-15 19:33:00,25.0,21.0,30.24,NNE,15,1.0,3.0,86,0.00,,,0.00,,2013-01-16 01:33:00,
2013-01-15 19:42:00,25.0,21.0,30.24,NNE,15,1.0,3.0,86,0.00,,,0.00,,2013-01-16 01:42:00,
2013-01-15 19:52:00,25.0,21.0,30.24,NNE,15,1.0,3.0,85,0.00,,,0.00,,2013-01-16 01:52:00,
2013-01-15 20:03:00,24.0,20.0,30.24,NNE,15,0.0,2.0,86,0.00,,,0.00,,2013-01-16 02:03:00,
2013-01-15 20:12:00,24.0,20.0,30.24,NNE,15,0.0,2.0,86,0.00,,,0.00,,2013-01-16 02:12:00,
2013-01-15 20:22:00,24.0,21.0,30.24,NNE,14,0.0,3.0,87,0.00,,,0.00,,2013-01-16 02:22:00,
2013-01-15 20:32:00,24.0,21.0,30.24,NNE,14,0.0,3.0,87,0.00,,,0.00,,2013-01-16 02:32:00,
2013-01-15 20:42:00,24.0,21.0,30.24,NNE,14,0.0,3.0,87,0.00,,,0.00,,2013-01-16 02:42:00,
2013-01-15 20:52:00,24.0,21.0,30.22,NNE,14,0.0,2.0,88,0.00,,,0.00,,2013-01-16 02:52:00,
2013-01-15 21:03:00,23.0,20.0,30.22,NNE,14,0.0,2.0,88,0.00,,,0.00,,2013-01-16 03:03:00,
2013-01-15 21:12:00,23.0,20.0,30.22,NNE,14,0.0,2.0,88,0.00,,,0.00,,2013-01-16 03:12:00,
2013-01-15 21:22:00,23.0,20.0,30.22,NNE,14,0.0,0.0,89,0.00,,,0.00,,2013-01-16 03:22:00,
2013-01-15 21:32:00,22.0,19.0,30.23,NNE,14,0.0,0.0,89,0.00,,,0.00,,2013-01-16 03:32:00,
2013-01-15 21:43:00,22.0,19.0,30.23,NNE,14,0.0,0.0,89,0.00,,,0.00,,2013-01-16 03:43:00,
2013-01-15 21:52:00,21.0,19.0,30.22,NNE,14,0.0,0.0,90,0.00,,,0.00,,2013-01-16 03:52:00,
2013-01-15 22:02:00,21.0,19.0,30.21,NNE,14,0.0,0.0,91,0.00,,,0.00,,2013-01-16 04:02:00,
2013-01-15 22:12:00,21.0,19.0,30.21,NNE,14,0.0,0.0,91,0.00,,,0.00,,2013-01-16 04:12:00,
2013-01-15 22:22:00,21.0,19.0,30.20,NNE,14,0.0,0.0,91,0.00,,,0.00,,2013-01-16 04:22:00,
2013-01-15 22:32:00,21.0,19.0,30.19,NNE,14,0.0,0.0,92,0.00,,,0.00,,2013-01-16 04:32:00,
2013-01-15 22:42:00,21.0,19.0,30.19,NNE,14,0.0,0.0,92,0.00,,,0.00,,2013-01-16 04:42:00,
2013-01-15 22:52:00,21.0,19.0,30.19,NNE,14,0.0,0.0,92,0.00,,,0.00,,2013-01-16 04:52:00,
2013-01-15 23:03:00,21.0,19.0,30.18,NNE,14,0.0,0.0,92,0.00,,,0.00,,2013-01-16 05:03:00,
2013-01-15 23:12:00,21.0,19.0,30.18,NNE,14,0.0,0.0,92,0.00,,,0.00,,2013-01-16 05:12:00,
2013-01-15 23:22:00,21.0,19.0,30.18,NNE,14,0.0,0.0,92,0.00,,,0.00,,2013-01-16 05:22:00,
2013-01-15 23:32:00,21.0,19.0,30.17,NNE,14,0.0,1.0,92,0.00,,,0.00,,2013-01-16 05:32:00,
2013-01-15 23:42:00,21.0,19.0,30.17,NNE,14,0.0,1.0,92,0.00,,,0.00,,2013-01-16 05:42:00,
2013-01-15 23:53:00,21.0,19.0,30.17,NNE,14,0.0,1.0,92,0.00,,,0.00,,2013-01-16 05:53:00,